EW3197 Weather Reports


Display with metric or nautical units.
time (UTC)temp
F
wind
direction
speed
MPH
gust
MPH
rain 1hr
in
rain 24hr
in
rain mn
in
humidity
%
barometer
mb
20260831160204 76 230 1.0 3.0 0.00 0.05 0.00 66 1020.0
20260831155704 76 228 2.0 3.0 0.00 0.05 0.00 67 1020.1
20260831155204 75 222 0.0 2.0 0.00 0.05 0.00 67 1020.1
20260831154703 75 220 0.0 2.0 0.00 0.05 0.00 67 1019.9
20260831154204 75 220 2.0 5.0 0.00 0.05 0.00 69 1020.0
20260831153703 74 223 1.0 3.0 0.00 0.05 0.00 71 1020.0
20260831153204 74 227 1.0 3.0 0.00 0.05 0.00 72 1020.2
20260831152704 74 231 2.0 3.0 0.00 0.05 0.00 73 1020.1
20260831152204 73 232 1.0 3.0 0.00 0.05 0.00 74 1020.2
20260831151705 73 193 1.0 3.0 0.00 0.05 0.00 74 1020.0
20260831151204 73 191 1.0 2.0 0.00 0.05 0.00 75 1020.0
20260831150704 72 191 1.0 2.0 0.00 0.05 0.00 75 1020.0
20260831150204 73 191 1.0 3.0 0.00 0.05 0.00 74 1020.0
20260831145704 73 189 1.0 2.0 0.00 0.05 0.00 74 1020.0
20260831145204 73 189 1.0 2.0 0.00 0.05 0.00 73 1020.1
20260831144704 73 189 1.0 3.0 0.00 0.05 0.00 73 1020.0
20260831144204 73 93 0.0 2.0 0.00 0.05 0.00 71 1020.0
20260831143204 73 87 0.0 2.0 0.00 0.05 0.00 71 1020.0
20260831142704 73 87 0.0 2.0 0.00 0.05 0.00 74 1020.0
20260831142204 72 91 0.0 2.0 0.00 0.05 0.00 76 1019.9
20260831141703 72 91 0.0 2.0 0.00 0.05 0.00 75 1019.9
20260831141205 72 286 0.0 1.0 0.00 0.05 0.00 76 1019.9
20260831140705 72 286 1.0 3.0 0.00 0.05 0.00 77 1019.9
20260831140204 72 286 2.0 3.0 0.00 0.05 0.00 77 1020.0
20260831135704 72 285 1.0 3.0 0.00 0.05 0.00 78 1020.0
20260831135204 71 285 1.0 2.0 0.00 0.05 0.00 78 1020.1
20260831134204 70 285 0.0 2.0 0.00 0.05 0.00 81 1020.1
20260831133704 70 285 0.0 2.0 0.00 0.05 0.00 81 1020.0
20260831133204 69 285 0.0 0.0 0.00 0.05 0.00 83 1020.1
20260831132704 69 285 0.0 2.0 0.00 0.05 0.00 83 1020.0
20260831132205 69 285 0.0 2.0 0.00 0.05 0.00 85 1019.9
20260831131704 69 285 1.0 2.0 0.00 0.05 0.00 86 1019.9
20260831131204 69 285 0.0 3.0 0.00 0.05 0.00 89 1019.9
20260831125205 65 280 0.0 1.0 0.00 0.05 0.00 91 1020.3
20260831124705 65 280 0.0 1.0 0.00 0.05 0.00 91 1020.4
20260831124204 65 280 0.0 2.0 0.00 0.05 0.00 91 1020.5
20260831123704 65 280 0.0 1.0 0.00 0.05 0.00 91 1020.4
20260831123205 65 280 0.0 1.0 0.00 0.05 0.00 91 1020.4
20260831122704 65 280 0.0 0.0 0.00 0.05 0.00 91 1020.4
20260831122204 64 280 0.0 0.0 0.00 0.05 0.00 91 1020.5
20260831121705 64 280 1.0 2.0 0.00 0.05 0.00 91 1020.5
20260831121204 64 280 0.0 1.0 0.00 0.05 0.00 91 1020.4
20260831120704 64 280 0.0 1.0 0.00 0.05 0.00 91 1020.5
20260831120205 64 280 0.0 0.0 0.00 0.05 0.00 91 1020.5
20260831115704 63 280 0.0 0.0 0.00 0.05 0.00 91 1020.5
20260831114704 63 280 0.0 0.0 0.00 0.05 0.00 91 1020.5
20260831114205 63 280 0.0 0.0 0.00 0.05 0.00 91 1020.5
20260831113204 63 280 0.0 0.0 0.00 0.05 0.00 91 1020.2
20260831112704 63 280 0.0 0.0 0.00 0.05 0.00 91 1020.0
20260831112204 62 280 0.0 0.0 0.00 0.05 0.00 91 1019.9
20260831111204 62 280 0.0 0.0 0.00 0.05 0.00 91 1019.8
20260831110704 62 280 0.0 0.0 0.00 0.05 0.00 91 1019.8
20260831110204 62 280 0.0 1.0 0.00 0.05 0.00 91 1019.8
20260831105704 62 280 0.0 0.0 0.00 0.05 0.00 91 1019.7
20260831105204 61 280 0.0 0.0 0.00 0.05 0.00 91 1019.8
20260831104705 61 280 0.0 0.0 0.00 0.05 0.00 91 1019.7
20260831104204 61 280 0.0 0.0 0.00 0.05 0.00 91 1019.6
20260831103708 61 280 0.0 0.0 0.00 0.05 0.00 90 1019.5
20260831103206 61 280 0.0 0.0 0.00 0.05 0.00 90 1019.5
20260831102704 61 280 0.0 0.0 0.00 0.05 0.00 90 1019.4
20260831102204 61 280 0.0 0.0 0.00 0.05 0.00 91 1019.2
20260831101705 61 280 0.0 0.0 0.00 0.05 0.00 91 1019.1
20260831101204 62 280 0.0 0.0 0.00 0.05 0.00 91 1019.2
20260831100705 62 280 0.0 0.0 0.00 0.05 0.00 90 1019.2
20260831100204 62 280 0.0 0.0 0.00 0.05 0.00 90 1019.2
20260831095204 62 280 0.0 0.0 0.00 0.05 0.00 91 1019.1
20260831094704 62 280 0.0 0.0 0.00 0.05 0.00 90 1019.1
20260831094204 62 280 0.0 0.0 0.00 0.05 0.00 90 1019.0
20260831093704 63 280 0.0 0.0 0.00 0.05 0.00 90 1019.1
20260831093204 63 280 0.0 0.0 0.00 0.05 0.00 90 1019.2
20260831092204 63 280 0.0 0.0 0.00 0.05 0.00 91 1019.2
20260831091705 63 280 0.0 0.0 0.00 0.05 0.00 90 1019.2
20260831091205 63 280 0.0 0.0 0.00 0.05 0.00 91 1019.1
20260831090705 63 280 0.0 0.0 0.00 0.05 0.00 90 1019.3
20260831090205 63 280 0.0 0.0 0.00 0.05 0.00 90 1019.2
20260831085204 63 280 0.0 0.0 0.00 0.05 0.00 90 1019.3
20260831084704 63 280 0.0 0.0 0.00 0.05 0.00 90 1019.2
20260831084204 63 280 0.0 1.0 0.00 0.05 0.00 90 1019.3
20260831083704 64 280 0.0 2.0 0.00 0.05 0.00 91 1019.1
20260831083204 63 280 0.0 1.0 0.00 0.05 0.00 90 1019.1
20260831082704 63 280 0.0 0.0 0.00 0.05 0.00 90 1019.1
20260831082204 63 280 0.0 0.0 0.00 0.05 0.00 90 1019.2
20260831081704 63 280 0.0 0.0 0.00 0.05 0.00 90 1019.3
20260831081204 63 280 0.0 0.0 0.00 0.05 0.00 90 1019.1
20260831080704 63 280 0.0 0.0 0.00 0.05 0.00 90 1019.0
20260831080206 63 280 0.0 0.0 0.00 0.05 0.00 90 1018.9
20260831075704 63 280 0.0 0.0 0.00 0.05 0.00 90 1018.9
20260831075204 63 280 0.0 0.0 0.00 0.05 0.00 90 1019.0
20260831074704 62 280 0.0 1.0 0.00 0.05 0.00 90 1018.9
20260831074204 62 280 0.0 0.0 0.00 0.05 0.00 90 1018.9
20260831073205 63 280 0.0 0.0 0.00 0.05 0.00 90 1018.9
20260831072704 63 280 0.0 0.0 0.00 0.05 0.00 90 1018.9
20260831072204 63 280 0.0 0.0 0.00 0.05 0.00 90 1018.8
20260831071705 62 280 0.0 2.0 0.00 0.05 0.00 90 1018.9
20260831071205 62 280 0.0 0.0 0.00 0.05 0.00 90 1018.9
20260831070204 62 280 0.0 1.0 0.00 0.05 0.00 90 1019.0
20260831065204 62 280 0.0 0.0 0.00 0.05 0.00 90 1018.9
20260831064205 63 280 0.0 1.0 0.00 0.05 0.00 90 1018.8
20260831063204 63 279 0.0 1.0 0.00 0.05 0.00 90 1018.6
20260831062704 62 279 0.0 1.0 0.00 0.05 0.00 90 1018.6
20260831062203 62 279 0.0 0.0 0.00 0.05 0.00 89 1018.7
20260831061203 63 279 0.0 0.0 0.00 0.05 0.00 89 1018.8
20260831060704 63 279 0.0 0.0 0.00 0.05 0.00 90 1018.8
20260831060203 63 279 0.0 0.0 0.00 0.05 0.00 89 1018.9
20260831055705 63 279 0.0 0.0 0.00 0.05 0.00 89 1018.9
20260831054704 63 279 0.0 0.0 0.00 0.05 0.00 89 1018.8
20260831054205 64 279 0.0 0.0 0.00 0.05 0.00 89 1018.8
20260831053704 64 279 0.0 0.0 0.00 0.05 0.00 89 1018.9
20260831053204 64 279 0.0 0.0 0.00 0.05 0.00 89 1018.9
20260831052704 64 279 0.0 0.0 0.00 0.05 0.00 89 1018.9
20260831052204 64 279 0.0 0.0 0.00 0.05 0.00 89 1018.9
20260831051704 65 287 0.0 2.0 0.00 0.05 0.00 89 1018.9
20260831050704 65 293 0.0 1.0 0.00 0.05 0.00 90 1018.9
20260831050203 65 293 1.0 2.0 0.00 0.05 0.00 90 1018.8
20260831045703 65 293 0.0 2.0 0.00 0.05 0.00 90 1018.9
20260831045204 65 294 1.0 2.0 0.00 0.05 0.00 90 1018.9
20260831044704 65 295 1.0 2.0 0.00 0.05 0.00 90 1018.9
20260831044204 65 295 0.0 1.0 0.00 0.05 0.00 90 1019.0
20260831043703 65 295 0.0 0.0 0.00 0.05 0.00 90 1019.0
20260831043204 65 295 0.0 1.0 0.00 0.05 0.00 89 1018.9
20260831042704 65 295 0.0 0.0 0.00 0.05 0.00 89 1019.0
20260831042203 65 295 0.0 0.0 0.00 0.05 0.00 89 1019.0
20260831041704 66 295 0.0 0.0 0.00 0.05 0.00 90 1018.9
20260831041204 66 295 0.0 1.0 0.00 0.05 0.00 90 1018.9
20260831040704 66 295 0.0 1.0 0.00 0.05 0.00 89 1019.0
20260831040204 66 295 0.0 0.0 0.00 0.05 0.00 89 1019.0
20260831035204 66 295 0.0 3.0 0.00 0.05 0.05 89 1018.8
20260831034704 66 323 0.0 3.0 0.00 0.05 0.05 89 1018.8
20260831034204 66 333 0.0 0.0 0.00 0.05 0.05 89 1018.8
20260831033704 66 333 0.0 0.0 0.00 0.05 0.05 89 1018.9
20260831033203 66 333 0.0 0.0 0.00 0.05 0.05 89 1018.8
20260831032704 66 333 0.0 0.0 0.00 0.05 0.05 89 1018.9
20260831032204 66 333 0.0 0.0 0.00 0.05 0.05 89 1018.8
20260831031705 66 333 0.0 0.0 0.00 0.05 0.05 89 1018.9
20260831031205 66 333 0.0 0.0 0.00 0.05 0.05 89 1018.9
20260831030204 66 333 0.0 0.0 0.00 0.05 0.05 89 1018.8
20260831025205 67 333 0.0 0.0 0.00 0.05 0.05 89 1018.8
20260831024704 67 333 0.0 0.0 0.00 0.05 0.05 89 1018.8
20260831024204 67 333 0.0 0.0 0.00 0.05 0.05 89 1018.9
20260831023704 67 333 0.0 0.0 0.00 0.05 0.05 88 1018.9
20260831023203 67 333 0.0 0.0 0.00 0.05 0.05 88 1018.8
20260831022204 67 333 0.0 1.0 0.00 0.05 0.05 88 1018.9
20260831021204 67 333 0.0 2.0 0.00 0.05 0.05 88 1018.9
20260831020704 67 333 1.0 2.0 0.00 0.05 0.05 89 1018.9
20260831020204 67 333 0.0 3.0 0.00 0.05 0.05 89 1018.9
20260831015704 67 332 0.0 2.0 0.00 0.05 0.05 89 1018.8
20260831014704 67 233 0.0 1.0 0.00 0.05 0.05 89 1018.7
20260831014204 67 233 1.0 2.0 0.00 0.05 0.05 89 1018.6
20260831013204 68 232 0.0 0.0 0.00 0.05 0.05 89 1018.5
20260831012703 68 232 0.0 0.0 0.00 0.05 0.05 89 1018.5
20260831012204 68 232 0.0 0.0 0.00 0.05 0.05 88 1018.4
20260831011204 68 232 0.0 0.0 0.00 0.05 0.05 88 1018.3
20260831010704 68 232 0.0 0.0 0.00 0.05 0.05 88 1018.3
20260831010204 68 232 0.0 0.0 0.00 0.05 0.05 88 1018.2
20260831005704 68 232 0.0 2.0 0.00 0.05 0.05 88 1018.2
20260831005204 68 232 0.0 1.0 0.00 0.05 0.05 88 1018.1
20260831004705 68 232 0.0 1.0 0.00 0.05 0.05 88 1018.1
20260831004204 68 232 2.0 3.0 0.01 0.05 0.05 87 1017.9
20260831003703 68 293 0.0 2.0 0.01 0.05 0.05 88 1017.9
20260831002704 69 293 0.0 1.0 0.05 0.05 0.05 88 1017.7
20260831002204 69 293 0.0 1.0 0.05 0.05 0.05 87 1017.6
20260831001705 69 293 0.0 1.0 0.05 0.05 0.05 87 1017.5
20260831001203 70 293 0.0 1.0 0.05 0.05 0.05 87 1017.4
20260831000704 70 293 0.0 0.0 0.05 0.05 0.05 87 1017.3
20260831000204 70 293 0.0 1.0 0.05 0.05 0.05 87 1017.4
20260830235704 70 293 0.0 2.0 0.05 0.05 0.05 86 1017.3
20260830235204 70 293 0.0 2.0 0.05 0.05 0.05 86 1017.2
20260830234705 70 293 0.0 1.0 0.05 0.05 0.05 86 1017.2
20260830233704 71 293 0.0 3.0 0.04 0.04 0.04 85 1017.0
20260830232705 71 290 1.0 2.0 0.00 0.00 0.00 84 1016.9
20260830232204 71 290 0.0 0.0 0.00 0.00 0.00 83 1016.8
20260830231704 71 290 0.0 0.0 0.00 0.00 0.00 83 1016.6
20260830230704 71 290 0.0 0.0 0.00 0.00 0.00 83 1016.9
20260830225703 71 290 0.0 0.0 0.00 0.00 0.00 83 1017.0
20260830225204 72 290 0.0 1.0 0.00 0.00 0.00 83 1017.0
20260830224204 72 290 0.0 0.0 0.00 0.00 0.00 82 1017.0
20260830223204 72 290 0.0 0.0 0.00 0.00 0.00 81 1017.0
20260830222204 73 290 0.0 0.0 0.00 0.00 0.00 81 1017.1
20260830220704 73 290 0.0 0.0 0.00 0.00 0.00 80 1017.0
20260830220204 73 290 0.0 0.0 0.00 0.00 0.00 80 1016.9
20260830215704 73 290 0.0 0.0 0.00 0.00 0.00 80 1016.9
20260830215203 74 290 0.0 0.0 0.00 0.00 0.00 79 1016.9
20260830214704 74 290 0.0 0.0 0.00 0.00 0.00 78 1016.8
20260830214204 74 290 0.0 0.0 0.00 0.00 0.00 77 1016.9
20260830213704 74 290 0.0 0.0 0.00 0.00 0.00 76 1016.9
20260830213203 74 290 0.0 0.0 0.00 0.00 0.00 76 1016.9
20260830212704 74 290 1.0 1.0 0.00 0.00 0.00 75 1016.9
20260830212204 74 290 1.0 2.0 0.00 0.00 0.00 75 1017.0
20260830211704 75 290 0.0 0.0 0.00 0.00 0.00 75 1017.0
20260830211204 75 290 0.0 1.0 0.00 0.00 0.00 75 1017.0
20260830210704 75 290 0.0 1.0 0.00 0.00 0.00 75 1017.1
20260830210204 75 290 0.0 2.0 0.00 0.00 0.00 74 1017.1
20260830205704 74 290 1.0 3.0 0.00 0.00 0.00 74 1017.1
20260830205204 75 229 0.0 1.0 0.00 0.00 0.00 75 1017.1
20260830204704 75 229 1.0 2.0 0.00 0.00 0.00 74 1017.2
20260830204204 75 229 1.0 2.0 0.00 0.00 0.00 74 1017.1
20260830203704 75 229 1.0 2.0 0.00 0.00 0.00 73 1017.2
20260830203204 75 229 1.0 3.0 0.00 0.00 0.00 74 1017.2
20260830202705 75 229 1.0 2.0 0.00 0.00 0.00 73 1017.2
20260830202205 75 229 0.0 2.0 0.00 0.00 0.00 73 1017.2
20260830201704 75 229 1.0 2.0 0.00 0.00 0.00 73 1017.2
20260830201204 75 230 1.0 2.0 0.00 0.00 0.00 72 1017.4
20260830200703 75 230 1.0 3.0 0.00 0.00 0.00 72 1017.4
20260830200204 75 229 1.0 3.0 0.00 0.00 0.00 71 1017.4
20260830195704 76 239 1.0 3.0 0.00 0.00 0.00 71 1017.4
20260830195204 76 239 1.0 3.0 0.00 0.00 0.00 71 1017.4
20260830194704 76 238 1.0 6.0 0.00 0.00 0.00 71 1017.5
20260830194204 76 191 2.0 3.0 0.00 0.00 0.00 70 1017.5
20260830193204 76 229 1.0 3.0 0.00 0.00 0.00 71 1017.6
20260830192704 76 230 1.0 3.0 0.00 0.00 0.00 70 1017.7
20260830191704 76 230 1.0 3.0 0.00 0.00 0.00 71 1017.7
20260830191204 76 230 2.0 3.0 0.00 0.00 0.00 70 1017.7
20260830190704 76 247 1.0 3.0 0.00 0.00 0.00 70 1017.9
20260830190204 76 247 1.0 3.0 0.00 0.00 0.00 70 1017.9
20260830185704 75 247 1.0 3.0 0.00 0.00 0.00 70 1018.0
20260830185204 75 226 2.0 5.0 0.00 0.00 0.00 71 1018.0
20260830184704 75 248 2.0 3.0 0.00 0.00 0.00 70 1018.1
20260830184203 75 225 0.0 2.0 0.00 0.00 0.00 70 1018.2
20260830183704 76 225 1.0 2.0 0.00 0.00 0.00 70 1018.2
20260830183204 76 225 2.0 3.0 0.00 0.00 0.00 68 1018.3
20260830182704 76 226 2.0 3.0 0.00 0.00 0.00 69 1018.3
20260830182204 76 226 2.0 5.0 0.00 0.00 0.00 68 1018.4
20260830181204 76 210 1.0 5.0 0.00 0.00 0.00 68 1018.6
20260830180704 76 222 1.0 2.0 0.00 0.00 0.00 67 1018.5
20260830180204 76 222 1.0 3.0 0.00 0.00 0.00 67 1018.6
20260830174704 76 242 2.0 3.0 0.00 0.00 0.00 63 1018.8
20260830174204 77 228 1.0 3.0 0.00 0.00 0.00 64 1018.7
20260830173205 79 241 2.0 5.0 0.00 0.00 0.00 61 1018.6
20260830172703 78 215 2.0 6.0 0.00 0.00 0.00 61 1018.6
20260830172204 78 241 2.0 7.0 0.00 0.00 0.00 62 1018.8
20260830171704 77 224 1.0 3.0 0.00 0.00 0.00 64 1018.6
20260830171204 77 218 1.0 3.0 0.00 0.00 0.00 62 1018.7
20260830170704 78 237 1.0 3.0 0.00 0.00 0.00 62 1018.8
20260830170204 77 222 1.0 3.0 0.00 0.00 0.00 62 1018.8
20260830165204 76 221 2.0 3.0 0.00 0.00 0.00 62 1019.1
20260830164704 76 221 2.0 3.0 0.00 0.00 0.00 61 1019.2
20260830164204 76 215 2.0 5.0 0.00 0.00 0.00 61 1019.2
20260830163704 77 224 1.0 3.0 0.00 0.00 0.00 62 1019.3
20260830162704 76 224 1.0 3.0 0.00 0.00 0.00 65 1019.3
20260830162205 76 225 2.0 3.0 0.00 0.00 0.00 65 1019.4
20260830161704 75 239 1.0 3.0 0.00 0.00 0.00 65 1019.4
20260830160704 76 239 1.0 3.0 0.00 0.00 0.00 66 1019.6